Погода в Торреоне

Мексика     25°32′15″N   103°26′10″W
темп.,
°C
ветер,
м/с
пор.,
м/с
влажн.,
%
обл.,
%
осадки,
мм/ч
давл.,
гПа
погр.,
м
17 сентября, пт
пт1701:00+24с22485 0.0 101119
04:00+22всв01617 0.0 101211
07:00+20св11675 0.0 101311
10:00+25св12545 0.0 1015507
13:00+30всв243316 0.0 10131773
16:00+34всв66183 0.0 10103013
19:00+32всв56175 0.0 10102339
22:00+28всв714275 0.0 1013291
18 сентября, сб
сб1801:00+24ссз12445 0.0 101516
04:00+22ссз33514 0.0 101419
07:00+21ссз33640 0.0 101616
10:00+25св46500 0.0 1017946
13:00+31в79240 0.0 10142330
16:00+33всв89171 0.0 10113280
19:00+31в782012 0.0 10102246
22:00+27всв6112846 0.0 1012286
19 сентября, вс
вс1901:00+23св11422 0.0 101414
04:00+22ссз22472 0.0 101413
07:00+20зсз11532 0.0 101411
10:00+25ссв11380 0.0 1015421
13:00+30всв23260 0.0 10131909
16:00+32всв44200 0.0 10092814
19:00+31всв55210 0.0 10082593
22:00+26ссв22294 0.0 101011
20 сентября, пн
пн2001:00+23св12350 0.0 101117
04:00+22сз22400 0.0 101111
07:00+20зсз11490 0.0 101211
10:00+26юз01340 0.0 1013324
13:00+31всв22230 0.0 10111694
16:00+34всв34182 0.0 10083371
19:00+33св66191 0.0 10072070
22:00+26ссв122935 0.0 101011
21 сентября, вт
вт2101:00+25ссв22358 0.0 101224
04:00+24сз224357 0.0 101220
07:00+22ссз22541 0.0 101312
10:00+26ссв24445 0.0 1016524
13:00+32св69285 0.0 10142826
16:00+34всв77186 0.0 10103689
19:00+24вюв10145330 0.0 1013705
22:00+22св4666100 0.6 1018586